This demonstration page uses our WeatherBlox Daily Observations layout. Learn more.

Left ArrowRight Arrow

39.08367, -84.50855

Hourly Observations for December 29, 2017

Temp ( °F °C ) Dew Point ( °F °C ) Humidity (%) Winds ( mph kmh ) Pressure ( in mb ) Visibility ( mi km ) Precip ( " mm )
12:53 am 00:53 Mostly Clear 17 -8.3 8 -13.3 68 68 N N/A 30.42 1030 10 16 N/A
1:53 am 01:53 Mostly Cloudy 15 -9.4 11 -11.7 84 84 N N/A 30.40 1030 10 16 N/A
2:53 am 02:53 Cloudy 18 -7.8 10 -12.2 71 71 S 5 7 30.41 1030 10 16 N/A
3:53 am 03:53 Cloudy 19 -7.2 10 -12.2 68 68 S 6 9 30.41 1030 10 16 N/A
4:53 am 04:53 Cloudy 20 -6.7 9 -12.8 62 62 SSW 3 6 30.41 1030 10 16 N/A
5:53 am 05:53 Cloudy 21 -6.1 9 -12.8 59 59 SW 6 9 30.41 1030 10 16 N/A
6:53 am 06:53 Cloudy 22 -5.6 8 -13.3 55 55 W 7 11 30.42 1030 10 16 N/A
7:53 am 07:53 Cloudy 22 -5.6 9 -12.8 57 57 W 9 15 30.42 1030 10 16 N/A
8:53 am 08:53 Cloudy 22 -5.6 10 -12.2 60 60 W 9 15 30.44 1031 10 16 N/A
9:53 am 09:53 Cloudy 23 -5 11 -11.7 60 60 WNW 10 17 30.45 1031 10 16 N/A
10:53 am 10:53 Mostly Cloudy 25 -3.9 11 -11.7 55 55 W 12 19 30.45 1031 10 16 N/A
11:53 am 11:53 Partly Cloudy 27 -2.8 13 -10.6 55 55 WSW 8 13 30.42 1030 10 16 N/A
12:53 pm 12:53 Sunny 28 -2.2 12 -11.1 51 51 W 7 11 30.37 1029 10 16 N/A
1:53 pm 13:53 Cloudy 27 -2.8 12 -11.1 53 53 VRB 5 7 30.36 1028 10 16 N/A
2:53 pm 14:53 Cloudy 28 -2.2 13 -10.6 53 53 W 8 13 30.35 1028 10 16 N/A
3:53 pm 15:53 Cloudy 28 -2.2 13 -10.6 53 53 SW 8 13 30.33 1027 10 16 N/A
4:41 pm 16:41 Cloudy with Light Snow 26 -3.3 18 -7.8 71 71 WSW 7 11 30.33 1027 2 3 N/A
4:53 pm 16:53 Cloudy with Light Snow 25 -3.9 20 -6.7 81 81 SSW 3 6 30.32 1027 1 2 N/A
5:47 pm 17:47 Mostly Cloudy with Light Snow 25 -4 21 -6 86 86 N N/A 30.33 1027 1 1 0.02 0.51
5:53 pm 17:53 Mostly Cloudy with Light Snow 24 -4.4 23 -5 96 96 N N/A 30.31 1026 1 1 0.02 0.51
6:10 pm 18:10 Mostly Cloudy with Light Snow 24 -4.4 23 -5 96 96 N N/A 30.33 1027 1 2 0.01 0.25
6:37 pm 18:37 Cloudy with Light Snow 24 -4.4 23 -5 96 96 N N/A 30.33 1027 1 2 0.03 0.76
6:53 pm 18:53 Cloudy with Light Snow 25 -3.9 23 -5 92 92 N N/A 30.31 1027 1 2 0.03 0.76
7:26 pm 19:26 Cloudy with Light Snow 25 -3.9 23 -5 92 92 ENE 3 6 30.33 1027 1 2 0.02 0.51
7:35 pm 19:35 Cloudy with Light Snow 24 -4.4 23 -5 96 96 E 3 6 30.30 1026 2 3 0.02 0.51
7:45 pm 19:45 Cloudy with Light Snow 24 -4.4 23 -5 96 96 N N/A 30.33 1027 3 5 0.02 0.51
7:53 pm 19:53 Cloudy with Light Snow 25 -3.9 23 -5 92 92 N N/A 30.30 1026 3 5 0.02 0.51
8:08 pm 20:08 Cloudy with Light Snow 25 -3.9 23 -5 92 92 N N/A 30.30 1026 3 5 N/A
8:49 pm 20:49 Cloudy with Mist and Fog 25 -4 21 -6 86 86 ENE 5 7 30.30 1026 6 10 N/A
8:53 pm 20:53 Cloudy with Mist and Fog 24 -4.4 22 -5.6 91 91 NE 5 7 30.28 1026 6 10 N/A
9:53 pm 21:53 Cloudy with Mist and Fog 24 -4.4 22 -5.6 91 91 N 3 6 30.25 1025 6 10 N/A
10:02 pm 22:02 Cloudy with Mist and Fog 24 -4.4 22 -5.6 91 91 N 5 7 30.27 1025 6 10 N/A
10:53 pm 22:53 Cloudy with Mist and Fog 24 -4.4 21 -6.1 88 88 N 3 6 30.23 1024 6 10 N/A
11:31 pm 23:31 Cloudy with Mist and Fog 24 -4.4 21 -6.1 88 88 N N/A 30.24 1024 6 10 N/A
11:53 pm 23:53 Cloudy 23 -5 20 -6.7 88 88 ENE 6 9 30.21 1023 7 11 N/A

Powered by AerisWeather